Netzbetreibername:;SW D�beln GmbH;;
Netz- oder Umspannebene:;Netzgebiet;;
Lastgangtyp:;Summenlast der Netzverluste;;
gesetzliche Grundlage:;� 23c Abs. 3 Nr. 3 EnWG;;
Einheit:;kW;;
Betrachtungszeitraum:;01.01.2022;31.12.2022;
;;;
Datum;von;bis;Wert
01.01.2022;00:00;00:15;280
01.01.2022;00:15;00:30;280
01.01.2022;00:30;00:45;281
01.01.2022;00:45;01:00;275
01.01.2022;01:00;01:15;272
01.01.2022;01:15;01:30;265
01.01.2022;01:30;01:45;265
01.01.2022;01:45;02:00;263
01.01.2022;02:00;02:15;261
01.01.2022;02:15;02:30;257
01.01.2022;02:30;02:45;250
01.01.2022;02:45;03:00;245
01.01.2022;03:00;03:15;250
01.01.2022;03:15;03:30;254
01.01.2022;03:30;03:45;265
01.01.2022;03:45;04:00;276
01.01.2022;04:00;04:15;280
01.01.2022;04:15;04:30;280
01.01.2022;04:30;04:45;290
01.01.2022;04:45;05:00;287
01.01.2022;05:00;05:15;286
01.01.2022;05:15;05:30;276
01.01.2022;05:30;05:45;263
01.01.2022;05:45;06:00;252
01.01.2022;06:00;06:15;223
01.01.2022;06:15;06:30;225
01.01.2022;06:30;06:45;229
01.01.2022;06:45;07:00;229
01.01.2022;07:00;07:15;234
01.01.2022;07:15;07:30;236
01.01.2022;07:30;07:45;246
01.01.2022;07:45;08:00;250
01.01.2022;08:00;08:15;249
01.01.2022;08:15;08:30;264
01.01.2022;08:30;08:45;275
01.01.2022;08:45;09:00;289
01.01.2022;09:00;09:15;291
01.01.2022;09:15;09:30;305
01.01.2022;09:30;09:45;321
01.01.2022;09:45;10:00;323
01.01.2022;10:00;10:15;330
01.01.2022;10:15;10:30;352
01.01.2022;10:30;10:45;374
01.01.2022;10:45;11:00;397
01.01.2022;11:00;11:15;427
01.01.2022;11:15;11:30;470
01.01.2022;11:30;11:45;478
01.01.2022;11:45;12:00;463
01.01.2022;12:00;12:15;446
01.01.2022;12:15;12:30;415
01.01.2022;12:30;12:45;394
01.01.2022;12:45;13:00;379
01.01.2022;13:00;13:15;367
01.01.2022;13:15;13:30;355
01.01.2022;13:30;13:45;336
01.01.2022;13:45;14:00;325
01.01.2022;14:00;14:15;345
01.01.2022;14:15;14:30;345
01.01.2022;14:30;14:45;344
01.01.2022;14:45;15:00;334
01.01.2022;15:00;15:15;344
01.01.2022;15:15;15:30;339
01.01.2022;15:30;15:45;328
01.01.2022;15:45;16:00;338
01.01.2022;16:00;16:15;356
01.01.2022;16:15;16:30;383
01.01.2022;16:30;16:45;404
01.01.2022;16:45;17:00;421
01.01.2022;17:00;17:15;441
01.01.2022;17:15;17:30;452
01.01.2022;17:30;17:45;472
01.01.2022;17:45;18:00;489
01.01.2022;18:00;18:15;492
01.01.2022;18:15;18:30;486
01.01.2022;18:30;18:45;491
01.01.2022;18:45;19:00;490
01.01.2022;19:00;19:15;479
01.01.2022;19:15;19:30;473
01.01.2022;19:30;19:45;457
01.01.2022;19:45;20:00;452
01.01.2022;20:00;20:15;432
01.01.2022;20:15;20:30;404
01.01.2022;20:30;20:45;387
01.01.2022;20:45;21:00;378
01.01.2022;21:00;21:15;361
01.01.2022;21:15;21:30;351
01.01.2022;21:30;21:45;346
01.01.2022;21:45;22:00;345
01.01.2022;22:00;22:15;353
01.01.2022;22:15;22:30;343
01.01.2022;22:30;22:45;328
01.01.2022;22:45;23:00;317
01.01.2022;23:00;23:15;302
01.01.2022;23:15;23:30;285
01.01.2022;23:30;23:45;274
02.01.2022;23:45;00:00;267
02.01.2022;00:00;00:15;253
02.01.2022;00:15;00:30;245
02.01.2022;00:30;00:45;246
02.01.2022;00:45;01:00;242
02.01.2022;01:00;01:15;239
02.01.2022;01:15;01:30;239,1666561
02.01.2022;01:30;01:45;238,5264271
02.01.2022;01:45;02:00;237,9910827
02.01.2022;02:00;02:15;240,1747233
02.01.2022;02:15;02:30;247,4413221
02.01.2022;02:30;02:45;253,7083286
02.01.2022;02:45;03:00;263,9990998
02.01.2022;03:00;03:15;266,6804522
02.01.2022;03:15;03:30;266,3820443
02.01.2022;03:30;03:45;269,5103932
02.01.2022;03:45;04:00;279,1587926
02.01.2022;04:00;04:15;291,5319673
02.01.2022;04:15;04:30;300,0298432
02.01.2022;04:30;04:45;309,0369118
02.01.2022;04:45;05:00;301,3052432
02.01.2022;05:00;05:15;299
02.01.2022;05:15;05:30;285
02.01.2022;05:30;05:45;275
02.01.2022;05:45;06:00;257
02.01.2022;06:00;06:15;236
02.01.2022;06:15;06:30;236
02.01.2022;06:30;06:45;237
02.01.2022;06:45;07:00;243
02.01.2022;07:00;07:15;250
02.01.2022;07:15;07:30;259
02.01.2022;07:30;07:45;271
02.01.2022;07:45;08:00;284
02.01.2022;08:00;08:15;290
02.01.2022;08:15;08:30;326
02.01.2022;08:30;08:45;344
02.01.2022;08:45;09:00;354
02.01.2022;09:00;09:15;370
02.01.2022;09:15;09:30;369
02.01.2022;09:30;09:45;372
02.01.2022;09:45;10:00;376
02.01.2022;10:00;10:15;374
02.01.2022;10:15;10:30;401
02.01.2022;10:30;10:45;431
02.01.2022;10:45;11:00;454
02.01.2022;11:00;11:15;484
02.01.2022;11:15;11:30;523
02.01.2022;11:30;11:45;533
02.01.2022;11:45;12:00;530
02.01.2022;12:00;12:15;492
02.01.2022;12:15;12:30;463
02.01.2022;12:30;12:45;442
02.01.2022;12:45;13:00;424
02.01.2022;13:00;13:15;403
02.01.2022;13:15;13:30;387
02.01.2022;13:30;13:45;374
02.01.2022;13:45;14:00;364
02.01.2022;14:00;14:15;367
02.01.2022;14:15;14:30;376
02.01.2022;14:30;14:45;374
02.01.2022;14:45;15:00;377
02.01.2022;15:00;15:15;382
02.01.2022;15:15;15:30;377
02.01.2022;15:30;15:45;371
02.01.2022;15:45;16:00;364
02.01.2022;16:00;16:15;367
02.01.2022;16:15;16:30;399
02.01.2022;16:30;16:45;437
02.01.2022;16:45;17:00;464
02.01.2022;17:00;17:15;508
02.01.2022;17:15;17:30;527
02.01.2022;17:30;17:45;562
02.01.2022;17:45;18:00;573
02.01.2022;18:00;18:15;569
02.01.2022;18:15;18:30;577
02.01.2022;18:30;18:45;573
02.01.2022;18:45;19:00;557
02.01.2022;19:00;19:15;533
02.01.2022;19:15;19:30;534
02.01.2022;19:30;19:45;503
02.01.2022;19:45;20:00;476
02.01.2022;20:00;20:15;460
02.01.2022;20:15;20:30;429
02.01.2022;20:30;20:45;408
02.01.2022;20:45;21:00;391
02.01.2022;21:00;21:15;379
02.01.2022;21:15;21:30;361
02.01.2022;21:30;21:45;349
02.01.2022;21:45;22:00;352
02.01.2022;22:00;22:15;349
02.01.2022;22:15;22:30;334
02.01.2022;22:30;22:45;319
02.01.2022;22:45;23:00;305
02.01.2022;23:00;23:15;293
02.01.2022;23:15;23:30;279
02.01.2022;23:30;23:45;269
03.01.2022;23:45;00:00;259
03.01.2022;00:00;00:15;250
03.01.2022;00:15;00:30;244
03.01.2022;00:30;00:45;238
03.01.2022;00:45;01:00;234
03.01.2022;01:00;01:15;230
03.01.2022;01:15;01:30;231
03.01.2022;01:30;01:45;231
03.01.2022;01:45;02:00;234
03.01.2022;02:00;02:15;243
03.01.2022;02:15;02:30;246
03.01.2022;02:30;02:45;251
03.01.2022;02:45;03:00;256
03.01.2022;03:00;03:15;267
03.01.2022;03:15;03:30;273,9078428
03.01.2022;03:30;03:45;287,4673707
03.01.2022;03:45;04:00;301,1935958
03.01.2022;04:00;04:15;308,6360385
03.01.2022;04:15;04:30;327,2689474
03.01.2022;04:30;04:45;344
03.01.2022;04:45;05:00;348
03.01.2022;05:00;05:15;367
03.01.2022;05:15;05:30;366
03.01.2022;05:30;05:45;368
03.01.2022;05:45;06:00;362
03.01.2022;06:00;06:15;382
03.01.2022;06:15;06:30;401
03.01.2022;06:30;06:45;429
03.01.2022;06:45;07:00;450
03.01.2022;07:00;07:15;468
03.01.2022;07:15;07:30;516
03.01.2022;07:30;07:45;532
03.01.2022;07:45;08:00;537
03.01.2022;08:00;08:15;527
03.01.2022;08:15;08:30;537
03.01.2022;08:30;08:45;550
03.01.2022;08:45;09:00;546
03.01.2022;09:00;09:15;548
03.01.2022;09:15;09:30;553
03.01.2022;09:30;09:45;548
03.01.2022;09:45;10:00;536
03.01.2022;10:00;10:15;530
03.01.2022;10:15;10:30;529
03.01.2022;10:30;10:45;500
03.01.2022;10:45;11:00;539
03.01.2022;11:00;11:15;554
03.01.2022;11:15;11:30;553
03.01.2022;11:30;11:45;551
03.01.2022;11:45;12:00;548
03.01.2022;12:00;12:15;529
03.01.2022;12:15;12:30;519
03.01.2022;12:30;12:45;525
03.01.2022;12:45;13:00;531
03.01.2022;13:00;13:15;523
03.01.2022;13:15;13:30;532
03.01.2022;13:30;13:45;533
03.01.2022;13:45;14:00;542
03.01.2022;14:00;14:15;554
03.01.2022;14:15;14:30;558
03.01.2022;14:30;14:45;547
03.01.2022;14:45;15:00;551
03.01.2022;15:00;15:15;548
03.01.2022;15:15;15:30;533
03.01.2022;15:30;15:45;533
03.01.2022;15:45;16:00;534
03.01.2022;16:00;16:15;531
03.01.2022;16:15;16:30;545
03.01.2022;16:30;16:45;589
03.01.2022;16:45;17:00;594
03.01.2022;17:00;17:15;612
03.01.2022;17:15;17:30;629
03.01.2022;17:30;17:45;649
03.01.2022;17:45;18:00;669
03.01.2022;18:00;18:15;651
03.01.2022;18:15;18:30;632
03.01.2022;18:30;18:45;615
03.01.2022;18:45;19:00;610
03.01.2022;19:00;19:15;615
03.01.2022;19:15;19:30;591
03.01.2022;19:30;19:45;566
03.01.2022;19:45;20:00;535
03.01.2022;20:00;20:15;506
03.01.2022;20:15;20:30;482
03.01.2022;20:30;20:45;454
03.01.2022;20:45;21:00;441
03.01.2022;21:00;21:15;425
03.01.2022;21:15;21:30;411
03.01.2022;21:30;21:45;391
03.01.2022;21:45;22:00;391
03.01.2022;22:00;22:15;400
03.01.2022;22:15;22:30;379
03.01.2022;22:30;22:45;353
03.01.2022;22:45;23:00;324
03.01.2022;23:00;23:15;313
03.01.2022;23:15;23:30;304
03.01.2022;23:30;23:45;289
04.01.2022;23:45;00:00;279
04.01.2022;00:00;00:15;270
04.01.2022;00:15;00:30;271
04.01.2022;00:30;00:45;268
04.01.2022;00:45;01:00;269
04.01.2022;01:00;01:15;270
04.01.2022;01:15;01:30;269
04.01.2022;01:30;01:45;267
04.01.2022;01:45;02:00;270
04.01.2022;02:00;02:15;269
04.01.2022;02:15;02:30;276
04.01.2022;02:30;02:45;282
04.01.2022;02:45;03:00;282
04.01.2022;03:00;03:15;293
04.01.2022;03:15;03:30;299
04.01.2022;03:30;03:45;309
04.01.2022;03:45;04:00;320
04.01.2022;04:00;04:15;331
04.01.2022;04:15;04:30;340
04.01.2022;04:30;04:45;357
04.01.2022;04:45;05:00;365
04.01.2022;05:00;05:15;369
04.01.2022;05:15;05:30;359
04.01.2022;05:30;05:45;373
04.01.2022;05:45;06:00;374
04.01.2022;06:00;06:15;391
04.01.2022;06:15;06:30;414
04.01.2022;06:30;06:45;442
04.01.2022;06:45;07:00;465
04.01.2022;07:00;07:15;484
04.01.2022;07:15;07:30;502
04.01.2022;07:30;07:45;528
04.01.2022;07:45;08:00;550
04.01.2022;08:00;08:15;548
04.01.2022;08:15;08:30;553
04.01.2022;08:30;08:45;548
04.01.2022;08:45;09:00;570
04.01.2022;09:00;09:15;562
04.01.2022;09:15;09:30;566
04.01.2022;09:30;09:45;580
04.01.2022;09:45;10:00;590
04.01.2022;10:00;10:15;593
04.01.2022;10:15;10:30;598
04.01.2022;10:30;10:45;605
04.01.2022;10:45;11:00;612
04.01.2022;11:00;11:15;625
04.01.2022;11:15;11:30;626
04.01.2022;11:30;11:45;637
04.01.2022;11:45;12:00;621
04.01.2022;12:00;12:15;596
04.01.2022;12:15;12:30;598
04.01.2022;12:30;12:45;585
04.01.2022;12:45;13:00;577
04.01.2022;13:00;13:15;562
04.01.2022;13:15;13:30;554
04.01.2022;13:30;13:45;561
04.01.2022;13:45;14:00;566
04.01.2022;14:00;14:15;575
04.01.2022;14:15;14:30;578
04.01.2022;14:30;14:45;585
04.01.2022;14:45;15:00;584
04.01.2022;15:00;15:15;591
04.01.2022;15:15;15:30;565
04.01.2022;15:30;15:45;557
04.01.2022;15:45;16:00;558
04.01.2022;16:00;16:15;561
04.01.2022;16:15;16:30;564
04.01.2022;16:30;16:45;616
04.01.2022;16:45;17:00;629
04.01.2022;17:00;17:15;649
04.01.2022;17:15;17:30;660
04.01.2022;17:30;17:45;671
04.01.2022;17:45;18:00;698
04.01.2022;18:00;18:15;670
04.01.2022;18:15;18:30;654
04.01.2022;18:30;18:45;648
04.01.2022;18:45;19:00;631
04.01.2022;19:00;19:15;646
04.01.2022;19:15;19:30;630
04.01.2022;19:30;19:45;609
04.01.2022;19:45;20:00;573
04.01.2022;20:00;20:15;540
04.01.2022;20:15;20:30;511
04.01.2022;20:30;20:45;468
04.01.2022;20:45;21:00;459
04.01.2022;21:00;21:15;437
04.01.2022;21:15;21:30;427
04.01.2022;21:30;21:45;405
04.01.2022;21:45;22:00;393
04.01.2022;22:00;22:15;386
04.01.2022;22:15;22:30;375
04.01.2022;22:30;22:45;370
04.01.2022;22:45;23:00;354
04.01.2022;23:00;23:15;334
04.01.2022;23:15;23:30;317
04.01.2022;23:30;23:45;306
05.01.2022;23:45;00:00;294
05.01.2022;00:00;00:15;286
05.01.2022;00:15;00:30;279
05.01.2022;00:30;00:45;278
05.01.2022;00:45;01:00;272
05.01.2022;01:00;01:15;272
05.01.2022;01:15;01:30;275
05.01.2022;01:30;01:45;276
05.01.2022;01:45;02:00;275
05.01.2022;02:00;02:15;290
05.01.2022;02:15;02:30;295
05.01.2022;02:30;02:45;302
05.01.2022;02:45;03:00;302
05.01.2022;03:00;03:15;313
05.01.2022;03:15;03:30;324
05.01.2022;03:30;03:45;342
05.01.2022;03:45;04:00;349
05.01.2022;04:00;04:15;358
05.01.2022;04:15;04:30;361
05.01.2022;04:30;04:45;376
05.01.2022;04:45;05:00;377
05.01.2022;05:00;05:15;390
05.01.2022;05:15;05:30;395
05.01.2022;05:30;05:45;410
05.01.2022;05:45;06:00;420
05.01.2022;06:00;06:15;419
05.01.2022;06:15;06:30;447
05.01.2022;06:30;06:45;471
05.01.2022;06:45;07:00;495
05.01.2022;07:00;07:15;519
05.01.2022;07:15;07:30;548
05.01.2022;07:30;07:45;577
05.01.2022;07:45;08:00;595
05.01.2022;08:00;08:15;603
05.01.2022;08:15;08:30;611
05.01.2022;08:30;08:45;612
05.01.2022;08:45;09:00;642
05.01.2022;09:00;09:15;618
05.01.2022;09:15;09:30;620
05.01.2022;09:30;09:45;612
05.01.2022;09:45;10:00;624
05.01.2022;10:00;10:15;624
05.01.2022;10:15;10:30;636
05.01.2022;10:30;10:45;614
05.01.2022;10:45;11:00;604
05.01.2022;11:00;11:15;596
05.01.2022;11:15;11:30;596
05.01.2022;11:30;11:45;567
05.01.2022;11:45;12:00;562
05.01.2022;12:00;12:15;556
05.01.2022;12:15;12:30;534
05.01.2022;12:30;12:45;568
05.01.2022;12:45;13:00;577
05.01.2022;13:00;13:15;565
05.01.2022;13:15;13:30;545
05.01.2022;13:30;13:45;554
05.01.2022;13:45;14:00;559
05.01.2022;14:00;14:15;579
05.01.2022;14:15;14:30;579
05.01.2022;14:30;14:45;570
05.01.2022;14:45;15:00;594
05.01.2022;15:00;15:15;615
05.01.2022;15:15;15:30;609
05.01.2022;15:30;15:45;610
05.01.2022;15:45;16:00;605
05.01.2022;16:00;16:15;596
05.01.2022;16:15;16:30;631
05.01.2022;16:30;16:45;659
05.01.2022;16:45;17:00;683
05.01.2022;17:00;17:15;678
05.01.2022;17:15;17:30;707
05.01.2022;17:30;17:45;733
05.01.2022;17:45;18:00;727
05.01.2022;18:00;18:15;717
05.01.2022;18:15;18:30;687
05.01.2022;18:30;18:45;681
05.01.2022;18:45;19:00;685
05.01.2022;19:00;19:15;684
05.01.2022;19:15;19:30;670
05.01.2022;19:30;19:45;644
05.01.2022;19:45;20:00;623
05.01.2022;20:00;20:15;576
05.01.2022;20:15;20:30;541
05.01.2022;20:30;20:45;517
05.01.2022;20:45;21:00;504
05.01.2022;21:00;21:15;471
05.01.2022;21:15;21:30;454
05.01.2022;21:30;21:45;438
05.01.2022;21:45;22:00;436
05.01.2022;22:00;22:15;435
05.01.2022;22:15;22:30;421
05.01.2022;22:30;22:45;409
05.01.2022;22:45;23:00;389
05.01.2022;23:00;23:15;374
05.01.2022;23:15;23:30;353
05.01.2022;23:30;23:45;348
06.01.2022;23:45;00:00;337
06.01.2022;00:00;00:15;331
06.01.2022;00:15;00:30;317
06.01.2022;00:30;00:45;310
06.01.2022;00:45;01:00;309
06.01.2022;01:00;01:15;311
06.01.2022;01:15;01:30;311
06.01.2022;01:30;01:45;325
06.01.2022;01:45;02:00;334
06.01.2022;02:00;02:15;342
06.01.2022;02:15;02:30;345
06.01.2022;02:30;02:45;362
06.01.2022;02:45;03:00;367
06.01.2022;03:00;03:15;367
06.01.2022;03:15;03:30;376
06.01.2022;03:30;03:45;383
06.01.2022;03:45;04:00;391
06.01.2022;04:00;04:15;397
06.01.2022;04:15;04:30;409
06.01.2022;04:30;04:45;409
06.01.2022;04:45;05:00;414
06.01.2022;05:00;05:15;436
06.01.2022;05:15;05:30;440
06.01.2022;05:30;05:45;448
06.01.2022;05:45;06:00;451
06.01.2022;06:00;06:15;446
06.01.2022;06:15;06:30;479
06.01.2022;06:30;06:45;519
06.01.2022;06:45;07:00;528
06.01.2022;07:00;07:15;555
06.01.2022;07:15;07:30;591
06.01.2022;07:30;07:45;611
06.01.2022;07:45;08:00;626
06.01.2022;08:00;08:15;622
06.01.2022;08:15;08:30;629
06.01.2022;08:30;08:45;629
06.01.2022;08:45;09:00;632
06.01.2022;09:00;09:15;615
06.01.2022;09:15;09:30;588
06.01.2022;09:30;09:45;587
06.01.2022;09:45;10:00;614
06.01.2022;10:00;10:15;636
06.01.2022;10:15;10:30;628
06.01.2022;10:30;10:45;624
06.01.2022;10:45;11:00;641
06.01.2022;11:00;11:15;660
06.01.2022;11:15;11:30;643
06.01.2022;11:30;11:45;589
06.01.2022;11:45;12:00;593
06.01.2022;12:00;12:15;550
06.01.2022;12:15;12:30;531
06.01.2022;12:30;12:45;529
06.01.2022;12:45;13:00;526
06.01.2022;13:00;13:15;529
06.01.2022;13:15;13:30;496
06.01.2022;13:30;13:45;504
06.01.2022;13:45;14:00;522
06.01.2022;14:00;14:15;543
06.01.2022;14:15;14:30;551
06.01.2022;14:30;14:45;552
06.01.2022;14:45;15:00;549
06.01.2022;15:00;15:15;557
06.01.2022;15:15;15:30;552
06.01.2022;15:30;15:45;546
06.01.2022;15:45;16:00;556
06.01.2022;16:00;16:15;549
06.01.2022;16:15;16:30;570
06.01.2022;16:30;16:45;619
06.01.2022;16:45;17:00;676
06.01.2022;17:00;17:15;700
06.01.2022;17:15;17:30;718
06.01.2022;17:30;17:45;748
06.01.2022;17:45;18:00;746
06.01.2022;18:00;18:15;733
06.01.2022;18:15;18:30;703
06.01.2022;18:30;18:45;708
06.01.2022;18:45;19:00;702
06.01.2022;19:00;19:15;685
06.01.2022;19:15;19:30;689
06.01.2022;19:30;19:45;662
06.01.2022;19:45;20:00;626
06.01.2022;20:00;20:15;582
06.01.2022;20:15;20:30;559
06.01.2022;20:30;20:45;526
06.01.2022;20:45;21:00;510
06.01.2022;21:00;21:15;483
06.01.2022;21:15;21:30;460
06.01.2022;21:30;21:45;452
06.01.2022;21:45;22:00;450
06.01.2022;22:00;22:15;449
06.01.2022;22:15;22:30;434
06.01.2022;22:30;22:45;423
06.01.2022;22:45;23:00;405
06.01.2022;23:00;23:15;383
06.01.2022;23:15;23:30;372
06.01.2022;23:30;23:45;362
07.01.2022;23:45;00:00;356
07.01.2022;00:00;00:15;355
07.01.2022;00:15;00:30;355
07.01.2022;00:30;00:45;355
07.01.2022;00:45;01:00;349
07.01.2022;01:00;01:15;352
07.01.2022;01:15;01:30;358
07.01.2022;01:30;01:45;365
07.01.2022;01:45;02:00;373
07.01.2022;02:00;02:15;383
07.01.2022;02:15;02:30;389
07.01.2022;02:30;02:45;382
07.01.2022;02:45;03:00;389
07.01.2022;03:00;03:15;398
07.01.2022;03:15;03:30;412
07.01.2022;03:30;03:45;416
07.01.2022;03:45;04:00;426
07.01.2022;04:00;04:15;425
07.01.2022;04:15;04:30;418
07.01.2022;04:30;04:45;438
07.01.2022;04:45;05:00;449
07.01.2022;05:00;05:15;462
07.01.2022;05:15;05:30;460
07.01.2022;05:30;05:45;459
07.01.2022;05:45;06:00;460
07.01.2022;06:00;06:15;450
07.01.2022;06:15;06:30;476
07.01.2022;06:30;06:45;512
07.01.2022;06:45;07:00;541
07.01.2022;07:00;07:15;574
07.01.2022;07:15;07:30;605
07.01.2022;07:30;07:45;645
07.01.2022;07:45;08:00;654
07.01.2022;08:00;08:15;643
07.01.2022;08:15;08:30;646
07.01.2022;08:30;08:45;639
07.01.2022;08:45;09:00;635
07.01.2022;09:00;09:15;641
07.01.2022;09:15;09:30;631
07.01.2022;09:30;09:45;657
07.01.2022;09:45;10:00;664
07.01.2022;10:00;10:15;647
07.01.2022;10:15;10:30;642
07.01.2022;10:30;10:45;624
07.01.2022;10:45;11:00;610
07.01.2022;11:00;11:15;619
07.01.2022;11:15;11:30;621
07.01.2022;11:30;11:45;637
07.01.2022;11:45;12:00;626
07.01.2022;12:00;12:15;597
07.01.2022;12:15;12:30;584
07.01.2022;12:30;12:45;600
07.01.2022;12:45;13:00;595
07.01.2022;13:00;13:15;600
07.01.2022;13:15;13:30;604
07.01.2022;13:30;13:45;597
07.01.2022;13:45;14:00;589
07.01.2022;14:00;14:15;601
07.01.2022;14:15;14:30;606
07.01.2022;14:30;14:45;611
07.01.2022;14:45;15:00;608
07.01.2022;15:00;15:15;616
07.01.2022;15:15;15:30;608
07.01.2022;15:30;15:45;583
07.01.2022;15:45;16:00;589
07.01.2022;16:00;16:15;593
07.01.2022;16:15;16:30;619
07.01.2022;16:30;16:45;646
07.01.2022;16:45;17:00;655
07.01.2022;17:00;17:15;667
07.01.2022;17:15;17:30;700
07.01.2022;17:30;17:45;714
07.01.2022;17:45;18:00;728
07.01.2022;18:00;18:15;695
07.01.2022;18:15;18:30;676
07.01.2022;18:30;18:45;674
07.01.2022;18:45;19:00;660
07.01.2022;19:00;19:15;657
07.01.2022;19:15;19:30;652
07.01.2022;19:30;19:45;617
07.01.2022;19:45;20:00;596
07.01.2022;20:00;20:15;550
07.01.2022;20:15;20:30;529
07.01.2022;20:30;20:45;502
07.01.2022;20:45;21:00;479
07.01.2022;21:00;21:15;456
07.01.2022;21:15;21:30;441
07.01.2022;21:30;21:45;427
07.01.2022;21:45;22:00;427
07.01.2022;22:00;22:15;441
07.01.2022;22:15;22:30;428
07.01.2022;22:30;22:45;411
07.01.2022;22:45;23:00;395
07.01.2022;23:00;23:15;374
07.01.2022;23:15;23:30;364
07.01.2022;23:30;23:45;353
08.01.2022;23:45;00:00;339
08.01.2022;00:00;00:15;329
08.01.2022;00:15;00:30;326
08.01.2022;00:30;00:45;323
08.01.2022;00:45;01:00;323
08.01.2022;01:00;01:15;325
08.01.2022;01:15;01:30;321
08.01.2022;01:30;01:45;322
08.01.2022;01:45;02:00;325
08.01.2022;02:00;02:15;331
08.01.2022;02:15;02:30;335
08.01.2022;02:30;02:45;337
08.01.2022;02:45;03:00;344
08.01.2022;03:00;03:15;348
08.01.2022;03:15;03:30;361
08.01.2022;03:30;03:45;367
08.01.2022;03:45;04:00;367
08.01.2022;04:00;04:15;379
08.01.2022;04:15;04:30;376
08.01.2022;04:30;04:45;384
08.01.2022;04:45;05:00;381
08.01.2022;05:00;05:15;382
08.01.2022;05:15;05:30;371
08.01.2022;05:30;05:45;355
08.01.2022;05:45;06:00;340
08.01.2022;06:00;06:15;305
08.01.2022;06:15;06:30;308
08.01.2022;06:30;06:45;317
08.01.2022;06:45;07:00;317
08.01.2022;07:00;07:15;334
08.01.2022;07:15;07:30;357
08.01.2022;07:30;07:45;381
08.01.2022;07:45;08:00;398
08.01.2022;08:00;08:15;418
08.01.2022;08:15;08:30;432
08.01.2022;08:30;08:45;460
08.01.2022;08:45;09:00;470
08.01.2022;09:00;09:15;493
08.01.2022;09:15;09:30;510
08.01.2022;09:30;09:45;527
08.01.2022;09:45;10:00;539
08.01.2022;10:00;10:15;560
08.01.2022;10:15;10:30;565
08.01.2022;10:30;10:45;591
08.01.2022;10:45;11:00;594
08.01.2022;11:00;11:15;630
08.01.2022;11:15;11:30;654
08.01.2022;11:30;11:45;661
08.01.2022;11:45;12:00;640
08.01.2022;12:00;12:15;607
08.01.2022;12:15;12:30;581
08.01.2022;12:30;12:45;544
08.01.2022;12:45;13:00;513
08.01.2022;13:00;13:15;487
08.01.2022;13:15;13:30;472
08.01.2022;13:30;13:45;466
08.01.2022;13:45;14:00;472
08.01.2022;14:00;14:15;471
08.01.2022;14:15;14:30;465
08.01.2022;14:30;14:45;470
08.01.2022;14:45;15:00;449
08.01.2022;15:00;15:15;445
08.01.2022;15:15;15:30;440
08.01.2022;15:30;15:45;446
08.01.2022;15:45;16:00;451
08.01.2022;16:00;16:15;455
08.01.2022;16:15;16:30;475
08.01.2022;16:30;16:45;496
08.01.2022;16:45;17:00;544
08.01.2022;17:00;17:15;588
08.01.2022;17:15;17:30;598
08.01.2022;17:30;17:45;609
08.01.2022;17:45;18:00;625
08.01.2022;18:00;18:15;623
08.01.2022;18:15;18:30;617
08.01.2022;18:30;18:45;605
08.01.2022;18:45;19:00;600
08.01.2022;19:00;19:15;603
08.01.2022;19:15;19:30;574
08.01.2022;19:30;19:45;555
08.01.2022;19:45;20:00;537
08.01.2022;20:00;20:15;518
08.01.2022;20:15;20:30;482
08.01.2022;20:30;20:45;461
08.01.2022;20:45;21:00;441
08.01.2022;21:00;21:15;428
08.01.2022;21:15;21:30;420
08.01.2022;21:30;21:45;408
08.01.2022;21:45;22:00;416
08.01.2022;22:00;22:15;431
08.01.2022;22:15;22:30;423
08.01.2022;22:30;22:45;404
08.01.2022;22:45;23:00;395
08.01.2022;23:00;23:15;380
08.01.2022;23:15;23:30;370
08.01.2022;23:30;23:45;357
09.01.2022;23:45;00:00;352
09.01.2022;00:00;00:15;346
09.01.2022;00:15;00:30;335
09.01.2022;00:30;00:45;334
09.01.2022;00:45;01:00;332
09.01.2022;01:00;01:15;333
09.01.2022;01:15;01:30;342
09.01.2022;01:30;01:45;348
09.01.2022;01:45;02:00;350
09.01.2022;02:00;02:15;353
09.01.2022;02:15;02:30;356
09.01.2022;02:30;02:45;361
09.01.2022;02:45;03:00;366
09.01.2022;03:00;03:15;376
09.01.2022;03:15;03:30;376
09.01.2022;03:30;03:45;369
09.01.2022;03:45;04:00;361
09.01.2022;04:00;04:15;362
09.01.2022;04:15;04:30;367
09.01.2022;04:30;04:45;372
09.01.2022;04:45;05:00;365
09.01.2022;05:00;05:15;362
09.01.2022;05:15;05:30;349
09.01.2022;05:30;05:45;334
09.01.2022;05:45;06:00;310
09.01.2022;06:00;06:15;277
09.01.2022;06:15;06:30;277
09.01.2022;06:30;06:45;280
09.01.2022;06:45;07:00;286
09.01.2022;07:00;07:15;285
09.01.2022;07:15;07:30;310
09.01.2022;07:30;07:45;323
09.01.2022;07:45;08:00;346
09.01.2022;08:00;08:15;361
09.01.2022;08:15;08:30;385
09.01.2022;08:30;08:45;409
09.01.2022;08:45;09:00;420
09.01.2022;09:00;09:15;432
09.01.2022;09:15;09:30;440
09.01.2022;09:30;09:45;462
09.01.2022;09:45;10:00;474
09.01.2022;10:00;10:15;488
09.01.2022;10:15;10:30;496
09.01.2022;10:30;10:45;498
09.01.2022;10:45;11:00;516
09.01.2022;11:00;11:15;560
09.01.2022;11:15;11:30;619
09.01.2022;11:30;11:45;622
09.01.2022;11:45;12:00;601
09.01.2022;12:00;12:15;569
09.01.2022;12:15;12:30;541
09.01.2022;12:30;12:45;514
09.01.2022;12:45;13:00;477
09.01.2022;13:00;13:15;440
09.01.2022;13:15;13:30;434
09.01.2022;13:30;13:45;433
09.01.2022;13:45;14:00;440
09.01.2022;14:00;14:15;442
09.01.2022;14:15;14:30;440
09.01.2022;14:30;14:45;434
09.01.2022;14:45;15:00;426
09.01.2022;15:00;15:15;432
09.01.2022;15:15;15:30;437
09.01.2022;15:30;15:45;428
09.01.2022;15:45;16:00;432
09.01.2022;16:00;16:15;431
09.01.2022;16:15;16:30;455
09.01.2022;16:30;16:45;499
09.01.2022;16:45;17:00;525
09.01.2022;17:00;17:15;564
09.01.2022;17:15;17:30;595
09.01.2022;17:30;17:45;585
09.01.2022;17:45;18:00;599
09.01.2022;18:00;18:15;614
09.01.2022;18:15;18:30;602